GW1104 Weather Reports


time (UTC)temp
F
wind
direction
speed
knots
gust
knots
rain 1hr
in
rain 24hr
in
rain mn
in
humidity
%
barometer
mb
20260510105316 50 12 0.0 0.0 0.00 0.23 0.00 95 1012.2
20260510104331 50 12 0.9 1.7 0.00 0.23 0.00 95 1012.3
20260510103338 50 139 0.9 2.6 0.00 0.23 0.00 95 1012.1
20260510102326 49 130 0.9 2.6 0.00 0.23 0.00 95 1011.6
20260510101332 49 137 1.7 1.7 0.00 0.23 0.00 95 1011.9
20260510100320 49 143 1.7 1.7 0.00 0.23 0.00 95 1011.8
20260510095324 49 134 1.7 2.6 0.00 0.23 0.00 95 1011.8
20260510094331 49 132 0.9 2.6 0.00 0.23 0.00 95 1011.8
20260510093347 49 130 0.9 1.7 0.00 0.23 0.00 95 1011.6
20260510092312 49 124 0.9 1.7 0.00 0.23 0.00 95 1011.6
20260510091317 48 124 1.7 2.6 0.00 0.23 0.00 95 1011.7
20260510090323 48 131 1.7 2.6 0.00 0.23 0.00 95 1011.7
20260510085328 48 120 1.7 3.5 0.00 0.23 0.00 95 1012.0
20260510084333 48 132 1.7 3.5 0.00 0.23 0.00 95 1012.1
20260510083321 49 110 0.9 1.7 0.00 0.23 0.00 95 1012.2
20260510082312 48 327 0.0 0.9 0.00 0.23 0.00 95 1012.3
20260510081344 48 327 0.0 0.9 0.00 0.23 0.00 95 1012.4
20260510080315 48 327 0.0 0.0 0.00 0.23 0.00 95 1012.5
20260510075332 48 327 0.0 1.7 0.00 0.23 0.00 95 1012.5
20260510074324 48 288 0.0 2.6 0.00 0.23 0.00 95 1012.4
20260510073312 48 309 1.7 3.5 0.00 0.23 0.00 95 1012.4
20260510072320 48 297 1.7 5.2 0.00 0.23 0.00 95 1012.5
20260510071334 47 311 4.3 5.2 0.00 0.23 0.00 94 1012.3
20260510070329 47 47 0.0 0.0 0.00 0.23 0.00 95 1011.7
20260510065314 48 47 0.0 0.0 0.00 0.23 0.00 95 1011.8
20260510064328 47 47 0.0 0.0 0.00 0.23 0.00 95 1011.9
20260510063334 47 47 0.0 0.0 0.00 0.23 0.00 95 1012.0
20260510062324 47 47 0.0 0.0 0.00 0.23 0.00 94 1012.2
20260510061339 47 47 0.0 0.0 0.00 0.23 0.00 94 1012.0
20260510060325 47 47 0.0 0.0 0.00 0.23 0.00 94 1012.1
20260510055328 47 138 0.0 0.0 0.00 0.23 0.00 94 1012.2
20260510054340 48 138 0.0 1.7 0.00 0.23 0.00 94 1011.9
20260510053321 48 137 0.0 2.6 0.00 0.23 0.00 94 1011.7
20260510052327 49 121 0.9 2.6 0.00 0.23 0.00 94 1011.6
20260510051331 49 131 0.9 3.5 0.00 0.23 0.00 94 1011.6
20260510050345 49 130 1.7 3.5 0.00 0.23 0.00 94 1011.6
20260510045318 49 137 0.9 3.5 0.00 0.23 0.00 94 1011.8
20260510044324 49 132 1.7 2.6 0.00 0.23 0.00 94 1011.8
20260510043329 49 124 0.9 3.5 0.00 0.23 0.00 94 1011.6
20260510042316 49 147 1.7 6.1 0.00 0.23 0.00 94 1011.7
20260510041325 49 114 2.6 6.1 0.00 0.23 0.00 94 1011.8
20260510040311 49 124 1.7 6.1 0.00 0.23 0.23 94 1011.8
20260510035338 49 137 0.9 5.2 0.00 0.23 0.23 94 1011.8
20260510034326 49 146 1.7 5.2 0.00 0.23 0.23 93 1011.5
20260510033314 49 128 1.7 2.6 0.00 0.23 0.23 93 1011.5
20260510032330 49 137 0.9 2.6 0.00 0.23 0.23 93 1011.4
20260510031317 50 126 0.9 3.5 0.00 0.23 0.23 93 1011.3
20260510030352 50 122 2.6 5.2 0.00 0.23 0.23 93 1011.3
20260510025317 50 125 1.7 2.6 0.00 0.23 0.23 93 1011.4
20260510024326 50 128 0.9 3.5 0.00 0.23 0.23 93 1011.5
20260510023313 50 122 1.7 2.6 0.00 0.23 0.23 93 1011.5
20260510022346 51 130 0.9 3.5 0.00 0.23 0.23 93 1011.6
20260510021332 51 118 2.6 6.1 0.00 0.23 0.23 93 1011.4
20260510020322 51 121 1.7 5.2 0.00 0.23 0.23 93 1011.4
20260510015350 51 148 1.7 5.2 0.00 0.23 0.23 93 1011.3
20260510014338 51 134 1.7 3.5 0.00 0.23 0.23 93 1011.3
20260510013324 51 124 2.6 4.3 0.00 0.23 0.23 93 1011.4
20260510012337 51 126 0.0 2.6 0.00 0.23 0.23 93 1011.4
20260510011332 52 128 0.9 2.6 0.00 0.23 0.23 93 1011.4
20260510010345 52 131 0.9 2.6 0.00 0.23 0.23 93 1011.1
20260510005351 52 137 1.7 3.5 0.00 0.23 0.23 93 1011.0
20260510004316 52 124 0.9 7.0 0.00 0.23 0.23 93 1010.9
20260510003352 52 147 1.7 4.3 0.00 0.23 0.23 93 1010.8
20260510002318 52 168 1.7 5.2 0.00 0.23 0.23 93 1010.8
20260510001324 52 137 0.9 4.3 0.00 0.23 0.23 93 1010.9
20260510000312 52 124 1.7 2.6 0.00 0.23 0.23 92 1010.7
20260509235336 53 130 1.7 5.2 0.00 0.23 0.23 92 1010.6
20260509234322 53 140 2.6 7.8 0.00 0.23 0.23 92 1010.6
20260509233337 53 124 1.7 2.6 0.00 0.23 0.23 92 1010.4
20260509232325 54 172 1.7 5.2 0.00 0.23 0.23 92 1010.3
20260509231312 54 130 1.7 3.5 0.00 0.23 0.23 92 1010.4
20260509230327 54 124 0.9 2.6 0.00 0.23 0.23 92 1010.3
20260509225312 54 132 1.7 5.2 0.00 0.23 0.23 91 1010.3
20260509224326 54 151 0.9 2.6 0.00 0.23 0.23 92 1010.3
20260509223313 54 161 2.6 6.1 0.00 0.23 0.23 92 1010.4
20260509222318 54 132 0.9 2.6 0.00 0.23 0.23 92 1010.6
20260509221325 53 135 2.6 3.5 0.00 0.23 0.23 92 1010.4
20260509220316 53 155 0.9 3.5 0.00 0.23 0.23 93 1010.6
20260509215330 53 201 0.0 1.7 0.00 0.23 0.23 93 1010.6
20260509214323 53 201 0.0 2.6 0.00 0.23 0.23 93 1010.8
20260509213328 53 203 0.0 1.7 0.00 0.23 0.23 93 1010.8
20260509212315 53 212 0.0 1.7 0.01 0.23 0.23 93 1010.8
20260509211328 52 212 0.0 1.7 0.02 0.23 0.23 93 1010.8
20260509210315 52 212 0.0 1.7 0.03 0.23 0.23 93 1010.8
20260509205340 52 211 0.0 1.7 0.04 0.23 0.23 93 1010.8
20260509204346 52 202 0.0 1.7 0.05 0.23 0.23 93 1010.9
20260509203358 52 335 0.0 2.6 0.06 0.23 0.23 93 1010.9
20260509202323 52 302 0.9 1.7 0.05 0.22 0.22 93 1010.9
20260509201355 52 310 1.7 2.6 0.06 0.21 0.21 93 1011.1
20260509200322 52 267 0.9 2.6 0.06 0.20 0.20 93 1011.6
20260509195337 52 251 1.7 6.1 0.06 0.19 0.19 93 1011.7
20260509194323 52 293 1.7 3.5 0.06 0.18 0.18 93 1011.7
20260509193337 52 328 0.9 3.5 0.06 0.17 0.17 93 1011.9
20260509192326 52 254 0.9 4.3 0.07 0.17 0.17 93 1012.0
20260509191339 53 311 1.7 3.5 0.08 0.15 0.15 92 1012.0
20260509190332 53 289 0.0 0.0 0.10 0.15 0.14 92 1012.1
20260509185338 53 289 0.0 2.6 0.10 0.14 0.13 92 1012.1
20260509184326 53 295 0.9 2.6 0.10 0.13 0.12 92 1012.1
20260509183359 53 262 0.0 0.9 0.09 0.12 0.11 92 1012.0
20260509182325 53 261 0.9 1.7 0.08 0.11 0.10 91 1012.3
20260509181330 53 181 1.7 4.3 0.05 0.08 0.07 90 1012.7
20260509180314 53 209 0.9 6.1 0.02 0.05 0.04 89 1012.7
20260509175319 54 165 1.7 5.2 0.01 0.04 0.03 88 1012.5
20260509174327 54 195 3.5 4.3 0.00 0.03 0.02 88 1012.4
20260509173317 54 310 0.9 6.1 0.00 0.03 0.02 88 1012.3
20260509172325 54 270 0.9 6.1 0.00 0.03 0.02 86 1012.3
20260509171330 55 164 1.7 6.1 0.00 0.03 0.02 87 1012.2
20260509170316 55 275 1.7 5.2 0.00 0.03 0.02 87 1012.1
20260509165320 55 246 1.7 3.5 0.00 0.03 0.02 86 1012.2
20260509164326 55 224 0.9 4.3 0.00 0.03 0.02 87 1012.1
20260509163315 55 197 2.6 3.5 0.01 0.03 0.02 88 1012.1
20260509162322 55 182 0.9 2.6 0.01 0.03 0.02 90 1012.0
20260509161327 54 175 1.7 4.3 0.01 0.03 0.02 89 1012.2
20260509160334 54 191 2.6 3.5 0.01 0.03 0.02 89 1012.5
20260509155340 55 190 1.7 2.6 0.01 0.03 0.02 89 1012.5
20260509154325 55 212 0.9 2.6 0.01 0.03 0.02 90 1012.4
20260509153332 54 169 0.9 2.6 0.00 0.02 0.01 89 1012.4
20260509152320 54 158 0.9 6.1 0.00 0.02 0.01 88 1012.7
20260509151335 54 205 1.7 6.1 0.00 0.02 0.01 87 1012.8
20260509150348 55 164 0.9 2.6 0.00 0.02 0.01 86 1012.9
20260509145334 55 197 2.6 4.3 0.00 0.02 0.01 84 1012.8
20260509144320 55 150 1.7 3.5 0.00 0.02 0.01 84 1012.7
20260509143327 55 197 0.9 2.6 0.00 0.02 0.01 85 1012.4
20260509142340 54 141 1.7 2.6 0.00 0.02 0.01 87 1012.3
20260509141345 53 126 0.9 1.7 0.00 0.02 0.01 88 1012.1
20260509140327 52 125 0.0 1.7 0.00 0.02 0.01 88 1012.3
20260509135330 52 121 0.9 3.5 0.00 0.02 0.01 87 1012.3
20260509134315 52 155 0.9 2.6 0.00 0.02 0.01 88 1012.5
20260509133321 51 125 0.0 3.5 0.00 0.02 0.01 88 1012.5
20260509132329 51 130 0.0 2.6 0.00 0.02 0.01 88 1012.4
20260509131316 51 168 0.9 2.6 0.00 0.02 0.01 88 1012.6
20260509130323 51 149 0.9 5.2 0.00 0.02 0.01 88 1012.7
20260509125328 50 147 0.9 2.6 0.00 0.02 0.01 88 1012.8
20260509124315 50 130 1.7 3.5 0.00 0.02 0.01 88 1012.6
20260509123331 50 124 1.7 5.2 0.00 0.02 0.01 89 1012.7
20260509122314 50 123 1.7 6.1 0.01 0.02 0.01 90 1012.9
20260509121328 49 149 1.7 7.8 0.01 0.02 0.01 91 1012.7
20260509120317 49 137 0.9 2.6 0.01 0.02 0.01 92 1012.5
20260509115323 49 147 1.7 1.7 0.01 0.02 0.01 92 1012.4
20260509114326 48 143 0.0 0.9 0.01 0.02 0.01 93 1012.1
20260509113313 48 134 0.9 2.6 0.01 0.02 0.01 93 1012.4
20260509112347 47 141 0.9 1.7 0.00 0.01 0.00 93 1012.5
20260509111335 47 127 0.0 1.7 0.00 0.01 0.00 93 1012.7
20260509110322 47 126 0.9 1.7 0.00 0.01 0.00 93 1013.0